This is the latest recevied weather packets stored in our database for station/object NR0A-4. If no packets are shown the sender has not sent any weather packets the latest 10 day(s).
| Time | Temp. | Humidity | Pressure | Rain* | Wind** | Luminosity | Snow |
|---|---|---|---|---|---|---|---|
| 1778085605 | 12.22° C | 35% | 1018.8 hPa | 0 mm | - | 1028 W/m² | - |
| 1778085304 | 11.67° C | 35% | 1018.9 hPa | 0 mm | - | 244 W/m² | - |
| 1778085005 | 11.67° C | 38% | 1018.8 hPa | 0 mm | - | 991 W/m² | - |
| 1778084705 | 11.11° C | 36% | 1018.8 hPa | 0 mm | - | 202 W/m² | - |
| 1778084405 | 11.11° C | 35% | 1018.8 hPa | 0 mm | - | 469 W/m² | - |
| 1778084104 | 11.11° C | 36% | 1018.6 hPa | 0 mm | - | 202 W/m² | - |
| 1778083805 | 11.11° C | 35% | 1018.6 hPa | 0 mm | - | 158 W/m² | - |
| 1778083504 | 11.11° C | 36% | 1018.6 hPa | 0 mm | - | 902 W/m² | - |
| 1778083204 | 11.11° C | 34% | 1018.6 hPa | 0 mm | - | 290 W/m² | - |
| 1778082905 | 11.67° C | 34% | 1018.6 hPa | 0 mm | - | 176 W/m² | - |
| 1778082605 | 11.67° C | 36% | 1018.6 hPa | 0 mm | - | 793 W/m² | - |
| 1778082305 | 11.67° C | 35% | 1018.5 hPa | 0 mm | - | 791 W/m² | - |
| 1778082004 | 11.11° C | 38% | 1018.6 hPa | 0 mm | - | 780 W/m² | - |
| 1778081704 | 11.67° C | 36% | 1018.7 hPa | 0 mm | - | 749 W/m² | - |
| 1778081405 | 11.11° C | 38% | 1018.8 hPa | 0 mm | - | 700 W/m² | - |
| 1778081105 | 11.11° C | 37% | 1018.6 hPa | 0 mm | - | 664 W/m² | - |
| 1778080805 | 11.11° C | 37% | 1018.5 hPa | 0 mm | - | 656 W/m² | - |
| 1778080505 | 11.11° C | 37% | 1018.6 hPa | 0 mm | - | 636 W/m² | - |
| 1778080205 | 11.11° C | 41% | 1018.6 hPa | 0 mm | - | 624 W/m² | - |
| 1778079905 | 10.56° C | 39% | 1018.7 hPa | 0 mm | - | 615 W/m² | - |
| 1778079604 | 10.56° C | 41% | 1018.8 hPa | 0 mm | - | 599 W/m² | - |
| 1778079304 | 10.56° C | 40% | 1018.7 hPa | 0 mm | - | 587 W/m² | - |
| 1778079005 | 10.56° C | 41% | 1018.8 hPa | 0 mm | - | 573 W/m² | - |
| 1778078704 | 10.56° C | 41% | 1018.8 hPa | 0 mm | - | 557 W/m² | - |
| 1778078405 | 10.56° C | 42% | 1018.9 hPa | 0 mm | - | 547 W/m² | - |
* Rain latest hour (hover to see other rain measurements)
** Current wind speed in m/s (hover to see current wind gust speed)